Location: Harwich
(41.6860°N, 70.0760°W)
Time: 12:53:40
(UTC-05:00)

Cosmos 2228 - Visible Passes

Search period start: 06 December 2016 00:00
Search period end: 16 December 2016 00:00
Orbit: 590 x 620 km, 82.5° (Epoch: 05 December)

Date Brightness Start Highest point End Pass type
(mag) Time Alt. Az. Time Alt. Az. Time Alt. Az.
11 Dec5.617:51:25SE17:51:25SE17:41:06Nvisible
11 Dec6.419:28:04SSW19:28:04SSW19:18:05NNWvisible
12 Dec 5.9 06:12:20 10° SE 06:14:59 16° E 06:17:39 10° NE visible
12 Dec 3.2 17:54:27 10° N 17:58:59 45° E 18:02:52 10° SSE visible
12 Dec 5.9 19:33:24 10° NW 19:35:48 15° W 19:38:12 10° WSW visible
13 Dec 5.3 06:24:17 10° SSE 06:27:51 27° E 06:31:27 10° NNE visible
13 Dec 2.9 18:07:23 10° N 18:11:46 81° E 18:16:09 10° S visible
14 Dec 4.8 16:44:56 10° NE 16:46:49 12° ENE 16:48:42 10° E visible
14 Dec 3.6 18:20:30 10° NNW 18:24:48 59° W 18:29:06 10° S visible
15 Dec 4.3 16:56:51 10° NNE 17:00:07 20° ENE 17:03:23 10° ESE visible
15 Dec 4.7 18:33:49 10° NNW 18:37:46 34° W 18:41:44 10° SSW visible
